Tracking 19170 objects as of 23-May-2018
HD Live streaming from Space Station
objects crossing your sky now

COSMOS 1150

Track COSMOS 1150 now!
10-day predictions
COSMOS 1150 is classified as:


NORAD ID: 11667
Int'l Code: 1980-003A
Perigee: 971.2 km
Apogee: 1,017.4 km
Inclination: 83.0 °
Period: 104.8 minutes
Semi major axis: 7365 km
RCS: 2.2107 m2 (large)
Launch date: January 14, 1980
Source: Commonwealth of Independent States (former USSR) (CIS)
Launch site: PLESETSK MISSILE AND SPACE COMPLEX (PKMTR)
aabbcc
Your satellite tracking list
Your tracking list is empty




NASA's NSSDC Master Catalog

Two Line Element Set (TLE):
1 11667U 80003A   18142.67135616  .00000008  00000-0 -72979-5 0  9991
2 11667  82.9524 192.7625 0031374 207.8275 265.0447 13.73459249922091
Source of the keplerian elements: AFSPC